SCP
1 1 1 1 1 1 2 2 2 2 2 2 1 1 1 1 1 1 1 1 1 1 1 1 1 1 1 1 1 1 1 0 0 0 0 0 0 0 0 0 0 0 0
1 1 1 1 1 1 1 1 2 2 2 2 1 1 1 1 1 1 1 1 1 1 1 1 1 1 1 1 1 1 0 0 0 0 0 0 0 0 0 0 0 0 0
1 1 1 1 1 1 1 1 1 1 1 1 1 1 1 1 1 1 0 0 0 0 0 0 0 1 1 0 0 0 0 0 0 0 0 0 0 0 0 0 0 0 0
0 1 1 1 1 1 1 1 1 1 1 1 1 1 1 1 1 0 0 0 0 0 0 0 0 0 0 0 0 0 0 0 0 0 0 0 0 0 0 0 0 0 0
0 0 1 1 1 1 1 1 1 1 1 1 1 1 1 1 0 0 0 0 0 0 0 0 0 0 0 0 0 0 0 0 0 0 0 0 0 0 0 0 0 0 0
0 0 0 1 1 1 1 1 1 1 1 1 1 1 1 0 0 0 0 0 0 0 0 0 0 0 0 0 0 0 0 0 0 0 0 0 0 0 0 0 0 0 0
0 0 0 0 0 0 0 1 1 1 1 1 1 0 0 0 0 0 0 0 0 0 0 0 0 0 0 0 0 0 0 0 0 0 0 0 0 0 0 0 0 0 0
0 0 0 0 0 0 0 0 0 0 0 0 0 0 0 0 0 0 0 0 0 0 0 0 0 0 0 0 0 0 0 0 0 0 0 0 0 0 0 0 0 0 0
0 0 0 0 0 0 0 0 0 0 0 0 0 0 0 0 0 0 0 0 0 0 0 0 0 0 0 0 0 0 0 0 0 0 0 0 0 0 0 0 0 0 0
0 0 0 0 0 0 0 0 0 0 0 0 0 0 0 0 0 0 0 0 0 0 0 0 0 0 0 0 0 0 0 0 0 0 0 0 0 0 0 0 0 0 0
0 0 0 0 0 0 0 0 0 0 0 0 0 0 0 0 0 0 0 0 0 0 0 0 0 0 0 0 0 0 0 0 0 0 0 0 0 0 0 0 0 0 0
0 0 0 0 0 0 0 0 0 0 0 0 0 0 0 0 0 0 0 0 0 0 0 0 0 0 0 0 0 0 0 0 0 0 0 0 0 0 0 0 0 0 0
0 0 0 0 0 0 0 0 0 0 0 0 0 0 0 0 0 0 0 0 0 0 0 0 0 0 0 0 0 0 0 0 0 0 0 0 0 0 0 0 0 0 0
0 0 0 0 0 0 0 0 0 0 0 0 0 0 0 0 0 0 0 0 0 0 0 0 0 0 0 0 0 0 0 0 0 0 0 0 0 0 0 0 0 0 0
0 0 0 0 0 0 0 0 0 0 0 0 0 0 0 0 0 0 0 0 0 0 0 0 0 0 0 0 0 0 0 0 0 0 0 0 0 0 0 0 0 0 0
0 0 0 0 0 0 0 0 0 0 0 0 0 0 0 0 0 0 0 0 0 0 0 0 0 0 0 0 0 0 0 0 0 0 0 0 0 0 0 0 0 0 0
0 0 0 0 0 0 0 0 0 0 0 0 0 0 0 0 0 0 0 0 0 0 0 0 0 0 0 0 0 0 0 0 0 0 0 0 0 0 0 0 0 0 0
0 0 0 0 0 0 0 0 0 0 0 0 0 0 0 0 0 0 0 0 0 0 0 0 0 0 0 0 0 0 0 0 0 0 0 0 0 0 0 0 0 0 0
0 0 0 0 0 0 0 0 0 0 0 0 0 0 0 0 0 0 0 0 0 0 0 0 0 0 0 0 0 0 0 0 0 0 0 0 0 0 0 0 0 0 0
0 0 0 0 0 0 0 0 0 0 0 0 0 0 0 0 0 0 0 0 0 0 0 0 0 0 0 0 0 0 0 0 0 0 0 0 0 0 0 0 0 0 0
0 0 0 0 0 0 0 0 0 0 0 0 0 0 0 0 0 0 0 0 0 0 0 0 0 0 0 0 0 0 0 0 0 0 0 0 0 0 0 0 0 0 0
0 0 0 0 0 0 0 0 0 0 0 0 0 0 0 0 0 0 0 0 0 0 0 0 0 0 0 0 0 0 0 0 0 0 0 0 0 0 0 0 0 0 0
0 0 0 0 0 0 0 0 0 0 0 0 0 0 0 0 0 0 0 0 0 0 0 0 0 0 0 0 0 0 0 0 0 0 0 0 0 0 0 0 0 0 0
0 0 0 0 0 0 0 0 0 0 0 0 0 0 0 0 0 0 0 0 0 0 0 0 0 0 0 0 0 0 0 0 0 0 0 0 0 0 0 0 0 0 0
0 0 0 0 0 0 0 0 0 0 0 0 0 0 0 0 0 0 0 0 0 0 0 0 0 0 0 0 0 0 0 0 0 0 0 0 0 0 0 0 0 0 0
0 0 0 0 0 0 0 0 0 0 0 0 0 0 0 0 0 0 0 0 0 0 0 0 0 0 0 0 0 0 0 0 0 0 0 0 0 0 0 0 0 0 0
Wind_Speed
5 5 4 4 3 3 2 3 4 4 4 4 4 4 4 4 3 3 4 5 5 4 4 3 3 3 3 3 4 4 5 4 4 3 3 4 4 4 3 3 3 4 5
5 5 5 4 3 2 2 2 3 3 3 3 3 3 4 4 4 3 4 5 5 4 3 4 3 3 3 4 4 3 3 3 2 2 3 3 4 3 4 3 3 4 4
4 4 5 5 3 3 2 1 2 2 2 3 4 5 4 4 4 3 3 4 5 5 4 4 4 3 3 3 3 3 3 3 2 1 2 2 3 4 3 4 4 3 3
5 5 5 6 5 3 2 3 3 3 3 3 4 6 5 5 4 3 3 5 6 6 5 5 5 4 3 4 3 2 2 3 3 2 2 3 2 2 3 3 3 4 4
6 6 6 6 5 4 3 3 4 4 4 3 5 5 5 5 5 5 7 6 7 7 7 7 6 6 5 5 5 4 3 2 2 2 2 2 2 1 1 3 3 3 3
6 6 7 7 6 6 5 5 5 6 5 5 6 6 8 8 8 8 7 6 6 7 9 9 8 7 7 7 7 6 8 6 6 4 3 2 1 1 0 2 3 2 2
6 7 7 8 7 7 6 6 7 7 7 7 7 8 8 8 9 8 7 7 6 7 8 8 8 7 7 8 7 8 8 8 7 6 4 4 4 2 1 1 2 2 3
7 8 8 8 7 7 7 6 8 8 9 9 9 9 9 7 7 8 8 8 7 8 8 9 9 9 8 8 8 8 8 7 8 8 6 4 5 3 2 1 1 3 3
8 8 8 8 8 8 8 8 9 10 10 10 11 11 10 10 10 9 9 8 8 8 9 9 10 9 9 8 7 7 7 7 7 7 6 5 5 4 3 3 2 3 2
8 8 8 8 8 8 9 10 10 11 11 11 10 10 11 11 10 10 11 10 10 10 10 10 10 9 9 8 7 8 8 7 7 6 7 5 5 4 4 3 3 3 3
8 8 8 8 8 9 9 10 11 11 12 12 12 13 12 11 11 11 10 9 10 9 9 9 9 9 8 7 7 8 7 7 7 6 7 7 6 4 3 3 3 3 3
8 9 9 9 9 10 10 10 10 11 12 12 12 12 12 12 11 12 11 10 10 9 9 9 9 8 8 7 7 7 7 7 7 6 6 6 4 4 4 3 3 3 3
9 9 9 9 9 10 10 11 11 12 12 12 12 12 12 12 11 11 10 10 10 9 9 9 8 8 7 7 7 6 6 6 6 6 5 5 5 4 4 3 3 2 2
10 10 9 9 9 10 10 10 11 11 12 12 12 12 11 10 10 10 10 9 9 9 8 8 8 7 7 7 6 6 6 6 6 5 5 5 5 5 4 3 3 3 3
10 10 9 9 10 10 10 10 10 10 11 11 12 11 10 10 9 10 9 9 8 8 8 8 7 7 7 7 6 5 5 5 5 4 4 6 6 7 6 6 6 5 4
11 10 10 10 10 10 10 11 10 10 10 11 11 10 10 9 9 9 8 8 8 7 7 8 8 8 8 8 9 6 4 4 4 4 3 4 3 2 3 3 5 6 7
12 11 10 10 10 9 10 10 10 9 9 10 10 9 9 9 8 8 8 8 7 7 7 7 8 9 9 7 7 8 3 3 3 3 2 2 3 2 3 3 8 8 8
12 11 10 10 9 9 9 10 9 9 9 9 8 8 8 8 7 7 7 6 6 6 6 6 7 8 8 6 6 9 2 3 2 2 2 3 3 6 6 6 4 2 1
11 10 10 10 10 10 9 9 9 9 9 8 8 7 7 7 7 7 6 6 5 6 5 6 6 6 7 6 7 11 1 2 2 2 3 4 4 6 7 7 5 4 2
11 11 10 11 10 9 9 9 8 8 8 8 7 7 7 7 7 7 6 5 4 5 5 6 5 5 6 6 6 11 3 2 1 2 4 6 5 6 7 7 6 6 6
12 12 11 10 9 9 8 8 8 8 7 7 7 7 6 6 6 6 5 4 4 4 4 5 5 5 5 5 5 8 6 5 3 2 2 6 5 5 5 7 6 6 8
13 12 10 10 9 8 8 8 8 7 6 6 6 6 5 4 5 5 4 3 3 4 4 4 3 4 4 4 4 4 4 7 5 4 4 6 4 3 4 4 5 8 10
12 10 11 10 9 8 8 9 8 6 5 5 6 6 6 4 4 3 3 3 2 2 3 3 3 3 3 5 4 3 2 4 4 4 5 3 3 5 3 1 5 8 5
12 11 11 11 9 9 8 8 7 6 5 5 5 5 4 4 4 2 3 3 3 3 2 3 3 3 3 4 3 1 2 5 3 1 3 7 7 5 2 2 3 4 5
11 10 10 10 10 9 8 8 6 5 5 5 4 3 4 4 4 5 5 5 7 7 6 4 3 3 5 7 7 7 6 7 6 6 3 2 2 3 3 4 4 4 4
11 10 10 10 10 9 8 7 5 4 3 3 3 3 3 3 3 4 6 6 5 4 4 5 6 5 7 4 4 4 4 5 7 7 3 3 4 5 5 5 5 5 5
Wind_Direction
69 55 53 65 85 101 117 145 151 146 157 164 170 162 154 138 127 121 130 133 130 141 154 149 152 164 153 145 151 159 152 146 145 151 136 112 83 70 61 53 60 71 65
74 64 57 67 66 78 108 117 133 150 161 160 164 153 132 119 104 101 99 106 116 122 131 132 135 132 131 140 151 165 172 151 181 216 189 173 146 95 62 73 76 68 74
69 61 52 49 55 54 53 82 92 121 125 130 135 129 123 122 121 118 101 87 96 97 102 121 119 120 132 143 148 168 187 167 158 313 263 222 188 136 96 64 68 71 69
68 58 49 44 42 40 50 68 82 93 102 125 143 147 143 132 126 118 104 91 84 84 89 97 102 104 104 110 120 126 155 161 159 132 32 13 39 176 146 129 96 78 67
71 63 52 46 44 46 52 63 77 81 90 109 137 137 124 115 111 108 101 87 76 77 81 84 90 91 87 89 93 94 84 99 115 117 107 91 76 357 208 155 145 118 85
76 69 62 57 51 48 55 63 70 72 77 86 98 114 119 120 117 110 104 89 80 75 76 81 81 82 82 83 85 86 82 76 75 74 70 81 89 107 133 153 171 156 123
78 68 59 52 48 49 52 61 72 69 71 79 83 92 103 111 109 109 104 97 87 80 77 80 79 79 82 83 84 83 79 80 81 77 75 68 58 48 42 166 156 171 155
77 67 59 53 49 49 54 64 74 75 74 78 80 84 88 90 89 90 93 89 86 82 83 82 80 78 80 81 81 84 83 80 79 75 69 72 62 50 37 28 200 195 177
84 76 67 59 54 53 54 64 76 78 79 81 84 84 84 85 90 90 88 88 88 86 80 79 79 78 77 78 81 81 81 82 84 87 82 75 73 60 52 37 352 309 259
91 81 72 68 62 62 67 71 76 79 80 83 86 87 85 86 88 87 85 85 84 83 83 80 78 76 76 77 80 87 81 82 77 73 72 68 74 65 59 49 36 2 333
96 89 82 77 74 74 76 78 81 83 84 85 87 87 86 85 84 84 81 82 82 81 81 81 80 80 82 83 82 86 91 88 87 85 81 70 50 49 53 51 47 38 11
101 95 89 85 81 78 78 79 82 86 89 91 91 91 91 88 86 84 81 80 79 78 79 82 82 83 82 82 86 90 91 91 89 83 78 73 70 58 41 32 39 44 14
108 101 95 90 87 85 84 84 85 88 92 93 93 91 90 89 89 88 87 85 83 80 81 82 83 83 83 82 82 84 85 83 81 76 71 67 61 49 46 15 25 23 17
114 107 101 98 95 92 89 89 89 92 95 94 93 92 91 92 92 92 90 87 84 82 80 79 81 82 82 82 83 85 84 84 82 75 68 59 50 40 24 23 19 0 331
119 115 113 108 105 102 98 94 93 94 96 98 97 96 95 95 93 90 88 86 84 84 83 84 85 84 78 60 54 81 87 88 89 84 72 62 48 28 357 353 358 342 326
124 122 117 114 110 108 106 104 101 101 103 104 104 104 103 99 95 94 92 89 86 86 88 87 84 77 67 42 18 2 83 82 79 75 72 105 130 109 222 275 308 320 320
131 126 122 119 116 113 112 111 110 109 106 104 105 107 106 103 101 100 100 99 98 93 90 88 87 84 72 41 20 357 354 69 60 49 33 35 70 290 350 221 224 234 237
131 128 125 121 118 118 117 117 116 113 110 108 108 107 108 105 104 103 101 101 100 99 97 93 91 89 75 41 14 336 308 64 56 34 17 2 18 35 346 324 323 320 216
131 128 127 126 126 125 126 124 122 119 114 109 106 104 103 101 102 98 97 98 102 103 106 99 95 93 88 48 8 329 301 83 76 60 40 357 29 51 337 307 329 340 349
130 131 133 134 131 131 134 130 125 118 109 103 99 97 95 94 94 93 95 99 107 109 106 100 94 86 83 65 15 336 325 46 57 114 125 89 21 2 329 317 340 350 353
136 138 139 136 134 136 134 125 117 108 103 100 99 96 95 95 94 95 96 104 105 101 98 107 109 97 79 98 47 359 341 358 356 40 70 78 42 0 332 312 343 347 316
139 138 135 132 134 135 133 124 114 110 108 107 105 104 100 93 95 96 97 97 112 130 125 126 127 119 117 72 72 18 356 330 335 9 33 59 28 354 336 342 352 309 292
137 137 135 132 133 134 132 126 123 124 119 109 104 102 99 85 82 93 105 122 132 112 113 123 113 108 108 127 169 205 251 292 319 24 33 355 302 272 228 182 289 295 313
140 142 140 137 134 133 129 125 126 127 122 115 115 116 108 104 94 73 76 72 69 79 93 84 78 89 97 63 48 50 181 210 233 264 174 216 240 260 309 271 280 329 356
141 144 141 137 135 134 130 133 133 135 126 123 127 122 110 96 98 79 49 42 55 34 13 33 39 43 65 49 13 344 358 356 6 328 306 321 341 337 1 356 356 344 346
143 144 141 138 138 140 137 134 134 133 128 129 134 133 122 114 115 122 119 68 58 78 51 22 1 53 57 32 1 346 329 316 313 304 340 5 2 0 0 353 349 351 358